Location: Nebraska Star Party
(42.6000°N, 100.8833°W)
Time: 21:42:17
(UTC-05:00)

Amateur Radio Satellites - All Passes

Search period start: 24 April 2017 21:12
Search period end: 25 April 2017 21:12
Location: Nebraska Star Party, 42.6000°N, 100.8833°W

Satellite Date Start Highest point End Downlink Frequencies (MHz)
Time Altitude Azimuth
M-CUBED/EXP-1 PRIME 24 Apr 21:13:54 21:18:10 62° 106° (ESE) 21:22:03 437.505
DELFI C3 24 Apr 21:25:21 21:27:30 14° 64° (ENE) 21:29:39 145.870
NO-84 24 Apr 21:43:30 21:47:07 85° 322° (NW) 21:50:26 435.350 FM
AO-85 24 Apr 21:47:55 21:50:46 19° 43° (NE) 21:53:40 145.980
ZACube-1 24 Apr 21:48:39 21:52:51 68° 259° (W) 21:57:00 437.345
CUTE 1.7 + AOD 2 24 Apr 21:54:27 21:55:07 10° 272° (W) 21:55:47 437.475
STRAND 1 24 Apr 21:54:34 21:59:25 45° 290° (WNW) 22:04:14 437.568
AAUSAT CUBESAT 2 24 Apr 21:54:35 21:58:10 29° 264° (W) 22:01:49 437.432
AO-73 24 Apr 21:56:55 22:01:04 60° 259° (W) 22:05:12 145.935
Oscar 11 24 Apr 22:15:16 22:19:23 45° 261° (W) 22:23:32 .
O/OREOS (USA 219) 24 Apr 22:21:57 22:26:09 36° 255° (WSW) 22:30:18 437.305
HO-68 24 Apr 22:25:50 22:28:44 13° 273° (W) 22:31:40 435.675
UWE-3 24 Apr 22:26:13 22:28:53 16° 268° (W) 22:31:33 435.000/436.395/437.385
OBJECT BX 24 Apr 22:37:33 22:41:09 70° 77° (ENE) 22:44:48 145.990 - 145.960
M-CUBED/EXP-1 PRIME 24 Apr 22:49:44 22:51:59 14° 305° (NW) 22:54:09 437.505
DELFI C3 24 Apr 22:58:01 23:01:52 49° 261° (W) 23:05:46 145.870
FO-29 24 Apr 23:06:22 23:10:14 21° 93° (E) 23:14:12 435.910
ESTCUBE 1 24 Apr 23:19:24 23:22:41 20° 65° (ENE) 23:26:00 437.505/2401.250
TIGRISAT 24 Apr 23:19:55 23:23:45 32° 97° (E) 23:27:36 435.000
NO-84 24 Apr 23:22:49 23:25:01 16° 337° (NNW) 23:27:07 435.350 FM
AO-85 24 Apr 23:27:32 23:31:23 49° 241° (WSW) 23:35:23 145.980
BEESAT 2 24 Apr 23:33:50 23:36:37 18° 42° (NE) 23:39:24 435.950
BEESAT 3 24 Apr 23:39:17 23:43:07 40° 51° (NE) 23:46:54 437.485
UNISAT 6 24 Apr 23:40:13 23:44:27 59° 101° (E) 23:48:42 437.425
VELOX 1 24 Apr 23:44:20 23:45:33 11° 60° (ENE) 23:46:46 145.980
PRISM 24 Apr 23:47:10 23:51:19 70° 286° (WNW) 23:55:26 437.425
LO-87 24 Apr 23:48:32 23:52:08 68° 76° (ENE) 23:55:46 145.935 - 145.965
AIST 2D 25 Apr 00:09:13 00:11:07 14° 92° (E) 00:13:01 435.315
POLYITAN 1 25 Apr 00:20:31 00:21:43 11° 90° (E) 00:22:56 437.675
QB50P2 25 Apr 00:26:02 00:28:20 14° 91° (E) 00:30:38 145.880/145.840
50 SAT 25 Apr 00:37:48 00:40:10 17° 67° (ENE) 00:42:32 437.505
DX 1 25 Apr 00:41:19 00:44:08 17° 63° (ENE) 00:46:59 434.975-435.025
NANOSAT C BR1 25 Apr 00:49:20 00:52:36 22° 94° (E) 00:55:50 145.865
FO-29 25 Apr 00:50:38 00:55:36 48° 290° (WNW) 01:00:46 435.910
ESTCUBE 1 25 Apr 00:54:56 00:59:12 42° 262° (W) 01:03:30 437.505/2401.250
TIGRISAT 25 Apr 00:56:55 01:00:18 23° 293° (WNW) 01:03:41 435.000
SPROUT 25 Apr 00:59:27 01:03:38 57° 74° (ENE) 01:07:50 437.525
BEESAT 2 25 Apr 01:10:44 01:14:45 59° 240° (WSW) 01:18:42 435.950
EO-79 25 Apr 01:15:11 01:19:14 46° 99° (E) 01:23:16 145.935-145.965
VELOX 1 25 Apr 01:16:50 01:21:18 84° 254° (WSW) 01:25:48 145.980
BEESAT 3 25 Apr 01:17:31 01:20:26 19° 248° (WSW) 01:23:20 437.485
UNISAT 6 25 Apr 01:18:31 01:20:41 14° 297° (WNW) 01:22:52 437.425
DUCHIFAT 1 25 Apr 01:19:45 01:23:44 42° 99° (E) 01:27:41 145.980
AIST 2D 25 Apr 01:41:15 01:44:28 34° 288° (WNW) 01:47:41 435.315
UKube-1 25 Apr 01:46:53 01:51:07 56° 73° (ENE) 01:55:22 .
POLYITAN 1 25 Apr 01:53:46 01:57:55 64° 286° (WNW) 02:02:03 437.675
QB50P2 25 Apr 02:00:20 02:04:24 49° 287° (WNW) 02:08:27 145.880/145.840
50 SAT 25 Apr 02:09:51 02:12:54 28° 263° (W) 02:15:58 437.505
DX 1 25 Apr 02:15:41 02:19:56 49° 260° (W) 02:24:12 434.975-435.025
Oscar 19 25 Apr 02:21:16 02:25:24 23° 94° (E) 02:29:30 437.125/150
NANOSAT C BR1 25 Apr 02:24:37 02:28:21 32° 290° (WNW) 02:32:04 145.865
BUGSAT 1 25 Apr 02:29:51 02:33:54 84° 107° (ESE) 02:37:54 437.445
ITUPSAT 1 25 Apr 02:33:17 02:36:12 16° 62° (ENE) 02:39:08 437.325
SPROUT 25 Apr 02:37:57 02:39:54 13° 270° (W) 02:41:51 437.525
NO-84 25 Apr 02:40:36 02:42:20 14° 21° (NNE) 02:44:01 435.350 FM
PCSat 25 Apr 02:47:31 02:51:23 20° 106° (ESE) 02:55:17 145.827
EO-79 25 Apr 02:52:00 02:54:38 16° 296° (WNW) 02:57:16 145.935-145.965
DUCHIFAT 1 25 Apr 02:56:19 02:59:05 18° 295° (WNW) 03:01:51 145.980
UKube-1 25 Apr 03:25:18 03:27:30 14° 269° (W) 03:29:40 .
BEESAT 25 Apr 03:29:35 03:34:14 57° 73° (ENE) 03:38:54 436.000
MOZHAYETS 4 25 Apr 03:41:00 03:45:03 33° 69° (ENE) 03:49:09
ITAMSAT 1 25 Apr 03:44:39 03:46:23 12° 89° (E) 03:48:06 435.822/435.867
Gurwin Techsat 1B 25 Apr 03:45:29 03:50:51 81° 105° (ESE) 03:56:09 435.225
Oscar 19 25 Apr 03:59:57 04:04:54 45° 290° (WNW) 04:09:49 437.125/150
ITUPSAT 1 25 Apr 04:08:52 04:13:33 60° 259° (WSW) 04:18:17 437.325
KKS-1 25 Apr 04:09:31 04:11:43 14° 61° (ENE) 04:13:57 437.445
NO-84 25 Apr 04:17:21 04:20:14 89° 235° (SW) 04:23:04 435.350 FM
CUBESAT XI-V 25 Apr 04:27:40 04:30:56 19° 64° (ENE) 04:34:14 437.345
PCSat 25 Apr 04:28:58 04:34:18 59° 304° (WNW) 04:39:42 145.827
STARS 25 Apr 04:46:29 04:48:52 14° 62° (ENE) 04:51:14 437.465
YUBILEINY 25 Apr 04:49:00 04:56:39 36° 85° (E) 05:04:19 435.215
AO-7 25 Apr 05:03:23 05:11:29 54° 102° (ESE) 05:19:34 .
BEESAT 25 Apr 05:09:30 05:12:21 16° 269° (W) 05:15:14 436.000
MOZHAYETS 4 25 Apr 05:18:33 05:22:15 24° 266° (W) 05:25:59
ITAMSAT 1 25 Apr 05:21:17 05:26:29 85° 285° (WNW) 05:31:40 435.822/435.867
Gurwin Techsat 1B 25 Apr 05:27:13 05:30:05 15° 301° (WNW) 05:32:58 435.225
KKS-1 25 Apr 05:43:16 05:47:44 67° 258° (WSW) 05:52:13 437.445
CUBESAT XI-V 25 Apr 06:03:29 06:07:57 47° 261° (W) 06:12:29 437.345
PCSat 25 Apr 06:16:28 06:18:53 13° 325° (NW) 06:21:19 145.827
STARS 25 Apr 06:20:20 06:24:42 61° 258° (WSW) 06:29:05 437.465
M-CUBED/EXP-1 PRIME 25 Apr 06:28:16 06:30:03 12° 54° (NE) 06:31:51 437.505
YUBILEINY 25 Apr 06:44:46 06:53:08 51° 285° (WNW) 07:01:35 435.215
XW-2F 25 Apr 06:50:29 06:51:51 12° 90° (E) 06:53:15 145.980 - 146.000
RS-15 25 Apr 06:53:50 07:01:49 21° 97° (E) 07:09:54 29.354- 29.394
AO-7 25 Apr 06:56:34 07:03:58 38° 301° (WNW) 07:11:23 .
ITAMSAT 1 25 Apr 07:03:11 07:05:09 12° 303° (WNW) 07:07:06 435.822/435.867
NUDT-PHONESAT 25 Apr 07:06:49 07:08:59 15° 92° (E) 07:11:09 437.300
DOVE 4 25 Apr 07:28:08 07:32:47 58° 100° (E) 07:37:06 437.250
STRAND 1 25 Apr 07:32:25 07:37:00 35° 68° (ENE) 07:41:37 437.568
XW-2D 25 Apr 07:37:00 07:40:41 46° 99° (E) 07:44:21 145.860 - 145.880
XW-2B 25 Apr 07:43:50 07:47:35 54° 100° (E) 07:51:20 145.730 - 145.750
LilacSat-2 25 Apr 07:52:41 07:56:31 75° 102° (ESE) 08:00:22 437.200
CUTE-I 25 Apr 07:55:23 08:00:39 59° 101° (E) 08:05:52 437.470
XW-2C 25 Apr 07:55:37 07:59:26 78° 102° (ESE) 08:03:15 145.795 - 145.815
KAITUO 1B 25 Apr 07:57:42 08:01:27 65° 101° (ESE) 08:05:12 145.475/437.950
M-CUBED/EXP-1 PRIME 25 Apr 07:59:07 08:03:43 86° 71° (ENE) 08:08:25 437.505
CUTE 1.7 + AOD 2 25 Apr 08:00:54 08:02:21 11° 89° (E) 08:03:47 437.475
HO-68 25 Apr 08:00:55 08:05:59 20° 91° (E) 08:11:01 435.675
SO-50 25 Apr 08:01:54 08:06:30 72° 121° (ESE) 08:11:04 436.795
XW-2F 25 Apr 08:22:36 08:26:17 49° 286° (WNW) 08:29:58 145.980 - 146.000
SEEDS 25 Apr 08:23:42 08:25:49 13° 90° (E) 08:27:56 437.485
NUDT-PHONESAT 25 Apr 08:39:36 08:43:02 37° 288° (WNW) 08:46:29 437.300
CUBEBUG 2 25 Apr 08:47:05 08:49:47 17° 92° (E) 08:52:30 437.445
RS-15 25 Apr 09:00:14 09:12:16 81° 119° (ESE) 09:24:41 29.354- 29.394
DOVE 4 25 Apr 09:07:08 09:09:54 16° 299° (WNW) 09:12:34 437.250
STRAND 1 25 Apr 09:11:47 09:16:11 29° 264° (W) 09:20:37 437.568
XW-2D 25 Apr 09:12:32 09:14:29 14° 295° (WNW) 09:16:27 145.860 - 145.880
XW-2A 25 Apr 09:16:11 09:19:32 87° 287° (WNW) 09:22:53 145.665 - 145.685
XW-2B 25 Apr 09:19:51 09:21:20 12° 296° (WNW) 09:22:48 145.730 - 145.750
FO-29 25 Apr 09:22:32 09:24:36 12° 57° (ENE) 09:26:36 435.910
CUTE 1.7 + AOD 2 25 Apr 09:34:20 09:38:36 64° 285° (WNW) 09:42:50 437.475
KAITUO 1B 25 Apr 09:34:42 09:34:55 10° 297° (WNW) 09:35:09 145.475/437.950
AAUSAT CUBESAT 2 25 Apr 09:35:17 09:39:14 39° 98° (E) 09:43:10 437.432
CUTE-I 25 Apr 09:36:29 09:40:14 20° 299° (WNW) 09:43:58 437.470
ZACube-1 25 Apr 09:36:32 09:39:43 21° 94° (E) 09:42:56 437.345
M-CUBED/EXP-1 PRIME 25 Apr 09:37:48 09:38:42 10° 267° (W) 09:39:37 437.505
SO-50 25 Apr 09:44:14 09:47:26 18° 320° (NW) 09:50:38 436.795
AO-73 25 Apr 09:44:17 09:47:39 23° 94° (E) 09:51:02 145.935
HO-68 25 Apr 09:47:11 09:54:24 77° 289° (WNW) 10:01:34 435.675
SEEDS 25 Apr 09:57:39 10:01:50 54° 286° (WNW) 10:05:58 437.485
Oscar 11 25 Apr 10:01:42 10:05:32 30° 96° (E) 10:09:21 .
Tancredo 1 25 Apr 10:01:42 10:04:46 60° 143° (SE) 10:07:50 437.200
ISS 25 Apr 10:10:32 10:13:44 57° 142° (SE) 10:16:56 437.550
UWE-3 25 Apr 10:12:45 10:16:57 88° 278° (W) 10:21:11 435.000/436.395/437.385
TIGRISAT 25 Apr 10:19:12 10:23:03 31° 69° (ENE) 10:26:52 435.000
CUBEBUG 2 25 Apr 10:22:42 10:26:36 41° 288° (WNW) 10:30:32 437.445
DELFI C3 25 Apr 10:34:56 10:37:51 19° 93° (E) 10:40:44 145.870
PRISM 25 Apr 10:36:31 10:40:39 89° 85° (E) 10:44:51 437.425
UNISAT 6 25 Apr 10:39:24 10:43:43 55° 74° (ENE) 10:47:57 437.425
O/OREOS (USA 219) 25 Apr 10:56:11 10:59:47 23° 102° (ESE) 11:03:25 437.305
FO-29 25 Apr 11:02:31 11:08:56 75° 74° (ENE) 11:14:37 435.910
AAUSAT CUBESAT 2 25 Apr 11:11:28 11:14:24 19° 294° (WNW) 11:17:20 437.432
ZACube-1 25 Apr 11:12:17 11:16:04 34° 289° (WNW) 11:19:56 437.345
RS-15 25 Apr 11:14:56 11:26:11 40° 326° (NW) 11:37:36 29.354- 29.394
POLYITAN 1 25 Apr 11:14:57 11:15:31 10° 60° (ENE) 11:16:06 437.675
QB50P2 25 Apr 11:19:59 11:21:56 13° 62° (ENE) 11:23:52 145.880/145.840
AO-73 25 Apr 11:20:11 11:23:54 31° 290° (WNW) 11:27:39 145.935
PCSat 25 Apr 11:33:21 11:37:38 23° 44° (NE) 11:41:54 145.827
HO-68 25 Apr 11:36:49 11:40:59 17° 308° (NW) 11:45:09 435.675
Oscar 11 25 Apr 11:37:58 11:41:33 26° 292° (WNW) 11:45:07 .
Tancredo 1 25 Apr 11:38:15 11:40:53 24° 341° (NNW) 11:43:30 437.200
OBJECT BX 25 Apr 11:39:06 11:42:47 85° 102° (ESE) 11:46:26 145.990 - 145.960
NANOSAT C BR1 25 Apr 11:42:23 11:45:19 19° 65° (ENE) 11:48:16 145.865
ISS 25 Apr 11:47:34 11:50:23 26° 340° (NNW) 11:53:13 437.550
TIGRISAT 25 Apr 11:56:10 11:59:45 24° 265° (W) 12:03:17 435.000
EO-79 25 Apr 12:08:02 12:11:55 37° 71° (ENE) 12:15:49 145.935-145.965
DELFI C3 25 Apr 12:09:04 12:12:42 33° 289° (WNW) 12:16:18 145.870
DUCHIFAT 1 25 Apr 12:12:02 12:15:49 34° 70° (ENE) 12:19:37 145.980
AIST 2D 25 Apr 12:15:38 12:19:06 86° 78° (ENE) 12:22:36 435.315
UNISAT 6 25 Apr 12:18:31 12:20:44 14° 269° (W) 12:22:58 437.425
O/OREOS (USA 219) 25 Apr 12:34:43 12:38:58 37° 299° (WNW) 12:43:16 437.305
ESTCUBE 1 25 Apr 12:46:25 12:50:40 37° 98° (E) 12:54:51 437.505/2401.250
POLYITAN 1 25 Apr 12:46:26 12:50:39 80° 255° (WSW) 12:54:53 437.675
LO-87 25 Apr 12:48:09 12:51:44 78° 102° (ESE) 12:55:16 145.935 - 145.965
FO-29 25 Apr 12:50:37 12:54:25 16° 268° (W) 12:58:00 435.910
QB50P2 25 Apr 12:53:01 12:57:12 62° 258° (WSW) 13:01:24 145.880/145.840
VELOX 1 25 Apr 13:07:11 13:10:08 17° 92° (E) 13:13:03 145.980
Tancredo 1 25 Apr 13:15:37 13:17:34 15° 1° (N) 13:19:32 437.200
PCSat 25 Apr 13:16:07 13:21:30 64° 244° (WSW) 13:26:50 145.827
NANOSAT C BR1 25 Apr 13:16:47 13:20:45 40° 262° (W) 13:24:43 145.865
BUGSAT 1 25 Apr 13:19:39 13:23:46 62° 75° (ENE) 13:27:51 437.445
ISS 25 Apr 13:25:28 13:27:39 16° 0° (N) 13:29:50 437.550
Gurwin Techsat 1B 25 Apr 13:29:30 13:33:11 19° 61° (ENE) 13:36:53 435.225
50 SAT 25 Apr 13:33:08 13:35:19 16° 93° (E) 13:37:29 437.505
RS-15 25 Apr 13:33:47 13:43:28 25° 360° (N) 13:53:04 29.354- 29.394
Oscar 19 25 Apr 13:38:34 13:43:15 37° 68° (ENE) 13:47:58 437.125/150
AO-85 25 Apr 13:42:25 13:46:27 40° 117° (ESE) 13:50:17 145.980
EO-79 25 Apr 13:44:46 13:47:48 19° 267° (W) 13:50:50 145.935-145.965
DUCHIFAT 1 25 Apr 13:48:24 13:51:34 21° 266° (W) 13:54:45 145.980
DX 1 25 Apr 14:03:22 14:07:01 26° 96° (E) 14:10:39 434.975-435.025
AO-7 25 Apr 14:14:22 14:19:38 19° 48° (NE) 14:24:55 .
SPROUT 25 Apr 14:20:00 14:24:16 80° 284° (WNW) 14:28:30 437.525
ESTCUBE 1 25 Apr 14:23:41 14:27:14 23° 294° (WNW) 14:30:46 437.505/2401.250
VELOX 1 25 Apr 14:42:34 14:46:48 45° 289° (WNW) 14:51:01 145.980
Tancredo 1 25 Apr 14:51:32 14:54:15 26° 21° (NNE) 14:56:56 437.200
SO-50 25 Apr 14:53:32 14:55:49 14° 35° (NE) 14:58:06 436.795
BUGSAT 1 25 Apr 14:58:17 14:59:30 11° 270° (W) 15:00:44 437.445
YUBILEINY 25 Apr 14:58:17 15:04:02 19° 60° (ENE) 15:09:47 435.215
ISS 25 Apr 15:02:02 15:04:54 27° 20° (NNE) 15:07:45 437.550
ITAMSAT 1 25 Apr 15:02:13 15:06:05 22° 63° (ENE) 15:09:57 435.822/435.867
BEESAT 2 25 Apr 15:03:25 15:06:15 19° 112° (ESE) 15:09:06 435.950
50 SAT 25 Apr 15:05:14 15:08:20 30° 289° (WNW) 15:11:24 437.505
BEESAT 3 25 Apr 15:06:34 15:10:24 54° 119° (ESE) 15:14:19 437.485
Gurwin Techsat 1B 25 Apr 15:07:24 15:12:39 61° 259° (W) 15:17:56 435.225
UKube-1 25 Apr 15:08:52 15:13:13 87° 280° (W) 15:17:31 .
Oscar 19 25 Apr 15:18:12 15:22:36 28° 265° (W) 15:27:03 437.125/150
AO-85 25 Apr 15:23:36 15:26:57 23° 314° (NW) 15:30:12 145.980
BEESAT 25 Apr 15:30:36 15:32:54 13° 90° (E) 15:35:12 436.000
DX 1 25 Apr 15:39:23 15:43:11 30° 292° (WNW) 15:46:57 434.975-435.025
RS-15 25 Apr 15:49:23 16:00:46 39° 34° (NE) 16:11:42 29.354- 29.394
AO-7 25 Apr 16:02:50 16:11:05 76° 68° (ENE) 16:19:22 .
ITUPSAT 1 25 Apr 16:08:42 16:12:59 32° 97° (E) 16:17:14 437.325
Tancredo 1 25 Apr 16:27:17 16:30:18 50° 219° (SW) 16:33:18 437.200
SO-50 25 Apr 16:32:32 16:37:03 76° 55° (NE) 16:41:33 436.795
ISS 25 Apr 16:38:20 16:41:31 53° 219° (SW) 16:44:42 437.550
BEESAT 2 25 Apr 16:39:57 16:43:43 40° 309° (NW) 16:47:33 435.950
ITAMSAT 1 25 Apr 16:40:08 16:45:11 52° 260° (W) 16:50:15 435.822/435.867
BEESAT 3 25 Apr 16:45:33 16:48:19 18° 318° (NW) 16:51:06 437.485
YUBILEINY 25 Apr 16:53:26 17:02:16 85° 82° (E) 17:11:05 435.215
BEESAT 25 Apr 17:06:23 17:11:08 67° 286° (WNW) 17:15:51 436.000
MOZHAYETS 4 25 Apr 17:11:31 17:16:08 72° 102° (ESE) 17:20:44
KKS-1 25 Apr 17:34:06 17:37:31 21° 94° (E) 17:40:54 437.445
CUTE-I 25 Apr 17:40:57 17:43:53 15° 59° (ENE) 17:46:48 437.470
ITUPSAT 1 25 Apr 17:46:37 17:50:42 29° 293° (WNW) 17:54:47 437.325
AO-7 25 Apr 17:58:15 18:04:35 24° 267° (W) 18:10:58 .
CUBESAT XI-V 25 Apr 17:59:04 18:03:31 40° 98° (E) 18:07:56 437.345
RS-15 25 Apr 18:02:21 18:14:37 81° 241° (WSW) 18:26:17 29.354- 29.394
STARS 25 Apr 18:09:28 18:12:53 22° 95° (E) 18:16:15 437.465
SO-50 25 Apr 18:15:09 18:16:53 12° 252° (WSW) 18:18:36 436.795
XW-2D 25 Apr 18:19:13 18:22:17 24° 69° (ENE) 18:25:21 145.860 - 145.880
XW-2B 25 Apr 18:25:56 18:29:09 28° 70° (ENE) 18:32:23 145.730 - 145.750
HO-68 25 Apr 18:31:46 18:36:17 18° 53° (NE) 18:40:48 435.675
DOVE 4 25 Apr 18:32:49 18:38:04 65° 74° (ENE) 18:43:15 437.250
LilacSat-2 25 Apr 18:35:07 18:38:37 38° 72° (ENE) 18:42:08 437.200
XW-2C 25 Apr 18:37:28 18:40:57 39° 72° (ENE) 18:44:28 145.795 - 145.815
KAITUO 1B 25 Apr 18:38:28 18:41:44 31° 71° (ENE) 18:45:02 145.475/437.950
MOZHAYETS 4 25 Apr 18:50:32 18:52:42 13° 299° (WNW) 18:54:52
YUBILEINY 25 Apr 18:52:03 18:57:54 20° 282° (WNW) 19:03:46 435.215
XW-2F 25 Apr 19:03:39 19:07:22 81° 77° (ENE) 19:11:07 145.980 - 146.000
KKS-1 25 Apr 19:10:05 19:14:10 36° 291° (WNW) 19:18:13 437.445
SEEDS 25 Apr 19:17:26 19:18:30 11° 61° (ENE) 19:19:34 437.485
CUTE-I 25 Apr 19:17:52 19:23:14 81° 256° (WSW) 19:28:36 437.470
NUDT-PHONESAT 25 Apr 19:18:57 19:22:36 79° 258° (WSW) 19:26:18 437.300
CUBESAT XI-V 25 Apr 19:36:58 19:40:38 23° 294° (WNW) 19:44:18 437.345
STRAND 1 25 Apr 19:45:01 19:45:47 10° 88° (E) 19:46:33 437.568
STARS 25 Apr 19:45:19 19:49:17 35° 291° (WNW) 19:53:14 437.465
CUBEBUG 2 25 Apr 19:46:10 19:48:55 17° 65° (ENE) 19:51:39 437.445
XW-2A 25 Apr 19:48:10 19:51:10 31° 72° (ENE) 19:54:11 145.665 - 145.685
XW-2D 25 Apr 19:53:26 19:56:25 23° 265° (W) 19:59:26 145.860 - 145.880
XW-2B 25 Apr 20:00:36 20:03:22 20° 266° (W) 20:06:09 145.730 - 145.750
LilacSat-2 25 Apr 20:10:56 20:13:04 15° 268° (W) 20:15:13 437.200
DOVE 4 25 Apr 20:12:46 20:16:07 17° 270° (W) 20:19:28 437.250
XW-2C 25 Apr 20:13:17 20:15:20 14° 268° (W) 20:17:23 145.795 - 145.815
KAITUO 1B 25 Apr 20:13:21 20:15:50 17° 267° (W) 20:18:19 145.475/437.950
HO-68 25 Apr 20:15:50 20:22:59 85° 73° (ENE) 20:30:12 435.675
RS-15 25 Apr 20:17:13 20:24:59 20° 263° (W) 20:32:36 29.354- 29.394
AAUSAT CUBESAT 2 25 Apr 20:26:02 20:29:35 28° 69° (ENE) 20:33:11 437.432
CUTE 1.7 + AOD 2 25 Apr 20:27:07 20:31:20 86° 259° (W) 20:35:35 437.475
ZACube-1 25 Apr 20:33:29 20:36:20 18° 66° (ENE) 20:39:12 437.345
AO-73 25 Apr 20:40:53 20:43:53 20° 66° (ENE) 20:46:53 145.935
SEEDS 25 Apr 20:49:23 20:53:33 75° 258° (WSW) 20:57:47 437.485
Oscar 11 25 Apr 20:57:15 21:00:46 25° 68° (ENE) 21:04:19 .
